TimeEDT,TemperatureF,Dew PointF,Humidity,Sea Level PressureIn,VisibilityMPH,Wind Direction,Wind SpeedMPH,Gust SpeedMPH,PrecipitationIn,Events,Conditions,WindDirDegrees,DateUTC
12:56 AM,81.0,64.9,58,29.79,10.0,West,8.1,-,N/A,,Clear,270,2013-06-26 04:56:00
1:56 AM,77.0,68.0,74,29.76,10.0,South,5.8,-,N/A,,Clear,180,2013-06-26 05:56:00
2:56 AM,75.0,69.1,82,29.75,10.0,SSW,4.6,-,N/A,,Clear,210,2013-06-26 06:56:00
3:56 AM,75.0,68.0,79,29.75,10.0,WSW,8.1,-,N/A,,Clear,240,2013-06-26 07:56:00
4:56 AM,73.9,68.0,82,29.76,10.0,West,5.8,-,N/A,,Clear,270,2013-06-26 08:56:00
5:56 AM,75.9,66.9,74,29.78,10.0,West,8.1,-,N/A,,Mostly Cloudy,270,2013-06-26 09:56:00
6:56 AM,77.0,66.9,71,29.80,10.0,West,11.5,-,N/A,,Mostly Cloudy,270,2013-06-26 10:56:00
7:56 AM,79.0,66.9,66,29.80,10.0,West,8.1,-,N/A,,Mostly Cloudy,280,2013-06-26 11:56:00
8:56 AM,81.0,66.9,62,29.82,10.0,WNW,12.7,-,N/A,,Mostly Cloudy,290,2013-06-26 12:56:00
9:56 AM,81.0,66.0,60,29.81,10.0,West,6.9,-,N/A,,Scattered Clouds,280,2013-06-26 13:56:00
10:56 AM,86.0,66.9,53,29.81,10.0,West,8.1,-,N/A,,Mostly Cloudy,280,2013-06-26 14:56:00
11:56 AM,84.0,68.0,58,29.81,10.0,SW,9.2,-,N/A,,Overcast,220,2013-06-26 15:56:00
12:56 PM,79.0,64.9,62,29.82,10.0,WSW,16.1,21.9,N/A,,Mostly Cloudy,240,2013-06-26 16:56:00
1:56 PM,80.1,66.0,62,29.82,10.0,SW,11.5,-,N/A,,Mostly Cloudy,230,2013-06-26 17:56:00
2:56 PM,84.0,66.9,56,29.81,10.0,SW,9.2,-,N/A,,Overcast,230,2013-06-26 18:56:00
3:56 PM,82.9,66.0,56,29.80,10.0,SW,9.2,-,N/A,,Mostly Cloudy,220,2013-06-26 19:56:00
4:56 PM,82.0,66.9,60,29.79,10.0,SSW,9.2,-,N/A,,Overcast,210,2013-06-26 20:56:00
5:56 PM,80.1,64.9,60,29.79,10.0,SW,10.4,-,N/A,,Overcast,220,2013-06-26 21:56:00
6:56 PM,78.1,64.9,64,29.81,10.0,SW,8.1,-,N/A,,Overcast,220,2013-06-26 22:56:00
7:56 PM,77.0,64.9,66,29.80,10.0,SW,5.8,-,N/A,,Overcast,230,2013-06-26 23:56:00
8:56 PM,75.9,66.9,74,29.80,10.0,SW,9.2,-,N/A,,Mostly Cloudy,230,2013-06-27 00:56:00
9:56 PM,73.9,69.1,85,29.81,10.0,SW,6.9,-,N/A,,Mostly Cloudy,220,2013-06-27 01:56:00
10:56 PM,73.9,68.0,82,29.81,10.0,SSW,8.1,-,N/A,,Mostly Cloudy,200,2013-06-27 02:56:00
11:56 PM,73.9,66.0,76,29.82,10.0,SW,6.9,-,N/A,,Overcast,220,2013-06-27 03:56:00